STARLINK-31612, 59337

Orbit data source: Space-Track

STARLINK-31612, 59337 is a payload satellite owned by SpaceX/Seattle (US) in LEO that was launched on Mon, 25 Mar 2024 UTC via an FALCON 9 launch vehicle from the Air Force Eastern Test Range (AFETR). Payload-class satellites include a variety of spacecraft equipped with specific instruments for various scientific and technological missions. These include communications satellites like Starlink; space stations such as the ISS; scientific satellites like the Hubble; Earth observation satellites from companies like Planet Labs, Umbra, and HawkEye 360; GPS; miniature CubeSats for education and research; and military/defense satellites.

Loading next visibility...
Identifier
59337, 2024-057T
Orbit
LEO
Country
Flag of USUS
Related business
Manufacturer
SpaceX/Seattle
Mission
Operational Commercial Communications
Bus & Motor
STARLINK V2M, Unknown motor
Mass
730 kg wet, ~700 kg dry
Launch date (UTC)
2024-03-25 (2 years ago)
Launch vehicle
FALCON 9
Launch site
Air Force Eastern Test Range (AFETR)
Object type
Payload
Rocket body
Debris
Shape & HBR
Box + 2 Pan, 17.7 m
Radar Cross Section
33.884 m², Large (>1 m²)

Expand to show TLE details & history
Last TLE update: 2 days ago

TLE from 2 days ago
0 STARLINK-31612
1 59337U 24057T   26171.44299404  .00000006  00000-0  97622-5 0  9995
2 59337  43.0019 326.7976 0001529 274.6934  85.3743 15.27576654125554
Epoch: 2026-06-20T10:37Z
TLE epoch observation values (Epoch: 2026-06-20T10:37:54.685Z)
Latitude
-0°
Longitude
-101.3378°
Altitude
482.75 km
Speed
7.626 km/s
True Right ascension
21h 47m 11s
True Declination
0° 00' 00"
Sunlit
Object was in full shadow at epoch
Visualization orbit readout
Latitude
Unknown
Longitude
Unknown
Altitude
Unknown
Speed
Unknown
Apparent Right ascension
Unknown
Apparent Declination
Unknown
Sunlit
N/A
Visualization observer readout
Local Sidereal Time
21:25:02
Azimuth
Unknown
Elevation
Unknown
Doppler factor
Unknown
Orbital elements
Apogee altitude
486.053 km
Perigee altitude
483.955 km
Semi-major axis
6,863.141 km
Eccentricity
0.00015
Inclination
43.0019°
RAAN
326.7976°
Arg. of periapsis
274.6934°
True anomaly
85.39176°
Mean anomaly
85.3743°
Eccentric anomaly
85.38303°
Mean motion
3.81732 °/min
Orbital period
94.31 mins
BSTAR
0.0000097622
Loading maneuver chart data...
Computing Atmospheric mass density...
Loading historical data...
Loading historical data...
Loading historical data...
Loading historical data...
Loading historical data...
Loading historical data...
Loading historical data...

Documentation

Showing up to 5 results
|